sat.trackr.live / text

‹ back to catalog

STARLINK-34687

NORAD 64909 · 2025-157F

PAYLOAD ACTIVE UNKNOWN

§ Identity

Operator
Country
US
Launch date
2025-07-26
Launch site
AFETR
Launch vehicle
Mass (kg)
RCS (m²)

Purposes: comms

External: N2YO · Heavens-Above · Gunter

§ Orbital elements

Epoch: 2026-09-20T06:06:43.132032Z

Period
93.85 min
Inclination
53.1590°
Eccentricity
0.0001149
Mean motion
15.34406164 rev/d
Perigee alt
461.9 km
Apogee alt
463.5 km
Semi-major
6,840.8 km
B*
4.4484e-4
RAAN
159.0189°
Arg perigee
85.2978°
Mean anomaly
274.8156°
Rev number
6,590

§ Raw data

STARLINK-346871 64909U 25157F   26263.25466588  .00014686  00000+0  44484-3 0  99922 64909  53.1590 159.0189 0001149  85.2978 274.8156 15.34406164 65907

JSON: /api/v1/satellites/64909 · /tle

For live sub-satellite position, see the globe view (requires WebGL).

§ Visibility from observer

Set your observer location to see the next 7 days of passes ≥ 10°. The values pass through the URL so the page stays shareable.

No JS? Fill the form by hand. The geolocation button needs JavaScript.